一网星座-0293星 (ONEWEB-0293 )

导读 | 星芒AI

ONEWEB-0293 是 OneWeb 卫星星座计划中的一颗低轨通信卫星,旨在为全球提供高速互联网服务。该卫星由空中客车防务与航天公司制造,采用 OneWeb 标准卫星平台,具备高容量和高可靠性。它于2022年发射,运行在约1200公里高度的近极地轨道,与其他 OneWeb 卫星协同工作,支持偏远和农村地区的宽带接入。该星座项目由多个政府和企业联合支持,致力于缩小全球数字鸿沟。

基本信息
目录编号:
49082
目录名称:
ONEWEB-0293
国际标识:
2021-075H
轨道中心:
EARTH
卫星名称:
一网星座-0293星
卫星全名:
一网星座-0293星 (ONEWEB-0293 )
卫星状态:
在轨 (已飞行1531 天)
发射日期:
2021-08-21 UTC
国别 :
英国 (GB)
星等 :
--
轨道信息
数据来源 国际轨道数据 AOE轨道数据
星历时间 2025-10-30T04:58:50+0800
8小时前
查看轨道信息
2025-10-29T09:00:00+0800
1天前
查看轨道信息
半长轴 7571.843km 7571.843km
偏心率 0.0001882 0.0001707
轨道倾角 87.913° 87.912°
近地点辐角 99.791° 104.163°
升交点赤经 51.671° 51.834°
平近点角 260.344° 269.101°
近地点 1192.282km 1192.415km
远地点 1195.134km 1195.001km
周期 109.285分钟 109.285分钟
每日圈数 13.176511 13.176511
详细信息
平衡模式:
三轴稳定
覆盖范围:
全球
运营商:
一网卫星公司
运营商所在国:
英国
制造商(研发单位):
一网卫星公司
制造商所在国:
英国
使用方式:
暂无
卫星简介
OneWeb卫星网络由648颗重约125公斤的微型卫星组成,运行在1200公里的轨道上。 每颗卫星都能够提供至少每秒8千兆位的吞吐量,以使用其高吞吐量的Ku频段有效载荷为家庭和移动平台提供互联网接入。该卫星仍在工作。
2D轨道图
3D轨道图
轨道高度分析图
轨道倾角分析图
轨道综合分析图
查看轨道综合分析图